Waarnemingen

Advertentie
Mijn weer
Bjuroklubb, Zweden (2297): temperatuur & dauwpunt: 12.01.2020 14:00:00 - 18.01.2020 14:00:00 (CET)Bjuroklubb, Zweden (2297): windsnelheid & windstoten: 12.01.2020 14:00:00 - 18.01.2020 14:00:00 (CET)Bjuroklubb, Zweden (2297): windrichting: 12.01.2020 14:00:00 - 18.01.2020 14:00:00 (CET)Bjuroklubb, Zweden (2297): luchtdruk: 12.01.2020 14:00:00 - 18.01.2020 14:00:00 (CET)Bjuroklubb, Zweden (2297): zicht: 12.01.2020 14:00:00 - 18.01.2020 14:00:00 (CET)Bjuroklubb, Zweden (2297): neerslag: 12.01.2020 14:00:00 - 18.01.2020 14:00:00 (CET)
Datum & Tijd tt [°C] td [°C] ff [km/u] ff [kn] fx [km/u] fx [kn] dd ppp [hPa] vv [km] rr [mm]
18.01.2020 14:00:00 -3,2 -3,7 25 14 33 18 N 1002,6 1,8 0,3
18.01.2020 13:00:00 -3,3 -3,8 26 14 31 17 N 1003,0 2,0 0,7
18.01.2020 12:00:00 -3,3 -3,8 27 14 32 17 N 1003,4 2,3 0,7
18.01.2020 11:00:00 -3,3 -3,8 25 13 30 16 NNO 1003,9 2,5 0,5
18.01.2020 10:00:00 -3,4 -3,8 23 12 32 18 N 1004,6 4,4 1,2
18.01.2020 09:00:00 -3,5 -4,0 24 13 30 16 N 1004,8 1,9 0,3
18.01.2020 08:00:00 -3,6 -4,1 22 12 32 17 N 1005,1 0,1 0,6
18.01.2020 07:00:00 -3,6 -4,1 25 14 35 19 N 1005,6 1,3 0,5
18.01.2020 06:00:00 -3,7 -4,2 28 15 36 19 N 1006,2 1,4 0,0
18.01.2020 05:00:00 -3,7 -4,2 29 16 40 22 N 1006,9 4,0 0,0
18.01.2020 04:00:00 -3,8 -4,3 32 17 41 22 N 1007,2 9 0,0
18.01.2020 03:00:00 -3,6 -4,1 32 18 44 24 N 1007,6 10 0,0
18.01.2020 02:00:00 -3,7 -4,2 33 18 42 23 N 1008,0 4,1 0,0
18.01.2020 01:00:00 -3,6 -4,0 33 18 45 24 N 1008,5 1,9 0,6
18.01.2020 00:00:00 -2,4 -2,8 30 16 40 21 N 1008,9 1,2 0,0
17.01.2020 23:00:00 -2,4 -2,8 31 17 40 21 N 1009,1 13 -
17.01.2020 22:00:00 -2,3 -2,6 34 18 39 21 NNO 1009,3 7 0,1
17.01.2020 21:00:00 -2,2 -2,5 35 19 39 21 NNO 1009,7 1,5 0,1
17.01.2020 20:00:00 -2,2 -2,5 30 16 37 20 NO 1009,6 2,0 0,4
17.01.2020 19:00:00 -2,2 -2,5 29 16 38 20 NNO 1010,0 0,7 0,0
17.01.2020 18:00:00 -1,9 -2,5 33 18 40 22 NO 1009,9 9 0,0
17.01.2020 17:00:00 -1,7 -2,0 32 18 39 21 NO 1010,1 14 -
17.01.2020 16:00:00 -1,1 -1,2 31 17 35 19 NO 1009,9 - 0,0
17.01.2020 15:00:00 -1,1 -1,2 32 18 39 21 NO 1010,0 4,4 0,0
17.01.2020 14:00:00 -0,4 -0,5 29 16 36 19 NO 1009,8 0,6 0,0
17.01.2020 13:00:00 -0,4 -0,7 29 15 33 18 NO 1009,7 1,4 0,0
17.01.2020 12:00:00 -0,2 -0,8 6 3 14 7 W 1009,1 50 0,0
17.01.2020 11:00:00 -0,1 -0,7 11 6 21 11 Z 1008,6 50 0,0
17.01.2020 10:00:00 1,1 -0,2 9 5 32 17 ZW 1008,1 50 0,0
17.01.2020 09:00:00 0,8 -0,2 20 11 31 17 WZW 1007,6 50 0,0
17.01.2020 08:00:00 1,2 -0,1 25 13 38 20 W 1007,1 50 0,0
17.01.2020 07:00:00 1,1 -0,1 31 17 38 20 WZW 1006,7 50 0,0
17.01.2020 06:00:00 1,5 0,0 28 15 38 20 ZW 1006,6 50 0,0
17.01.2020 05:00:00 1,2 -0,1 25 14 47 25 WZW 1006,1 50 0,0
17.01.2020 04:00:00 1,0 -0,3 33 18 47 25 W 1005,3 50 0,0
17.01.2020 03:00:00 1,1 -0,4 33 18 45 24 WZW 1005,0 50 0,0
17.01.2020 02:00:00 0,2 -1,4 31 17 47 25 WZW 1004,6 50 0,0
17.01.2020 01:00:00 -0,8 -2,2 29 16 41 22 WZW 1003,9 50 0,0
17.01.2020 00:00:00 -0,9 -2,3 29 16 46 25 ZW 1003,5 50 0,0
16.01.2020 23:00:00 -0,9 -2,3 28 15 39 21 ZW 1003,5 50 0,0
16.01.2020 22:00:00 -1,1 -2,5 26 14 42 23 ZW 1003,6 50 0,0
16.01.2020 21:00:00 -1,8 -2,6 26 14 43 23 ZZW 1003,6 50 0,0
16.01.2020 20:00:00 -2,0 -2,4 19 10 28 15 ZW 1003,5 50 0,0
16.01.2020 19:00:00 -0,9 -1,3 21 11 33 18 ZZW 1003,3 50 0,0
16.01.2020 18:00:00 -1,8 -2,1 12 7 17 9 Z 1003,4 50 0,0
16.01.2020 17:00:00 -1,9 -2,2 9 5 16 9 Z 1003,5 50 0,0
16.01.2020 16:00:00 -2,3 -2,6 11 6 14 8 OZO 1002,9 50 0,0
16.01.2020 15:00:00 -2,6 -3,0 4 2 10 5 NO 1003,0 8 0,0
16.01.2020 14:00:00 -2,9 -3,4 2 1 10 5 NO 1002,7 1,6 0,0
16.01.2020 13:00:00 -3,0 -3,7 8 4 12 7 W 1002,3 50 0,0
16.01.2020 12:00:00 -3,1 -3,8 3 2 16 8 NNO 1001,4 50 0,0
16.01.2020 11:00:00 - - - - - - - - - -
16.01.2020 10:00:00 - - - - - - - - - -
16.01.2020 09:00:00 -2,8 -3,5 7 4 17 9 NO 999,3 50 0,0
16.01.2020 08:00:00 -2,8 -3,5 11 6 21 11 NNO 998,2 50 0,0
16.01.2020 07:00:00 -2,6 -3,3 13 7 25 13 N 997,2 50 0,0
16.01.2020 06:00:00 -1,9 -2,5 16 9 24 13 N 996,4 50 0,0
16.01.2020 05:00:00 -1,5 -1,9 18 10 27 15 NNO 995,6 50 0,0
16.01.2020 04:00:00 -1,0 -1,3 16 9 22 12 N 994,7 50 0,0
16.01.2020 03:00:00 -1,4 -1,7 16 9 19 11 NNW 994,1 0,7 0,0
16.01.2020 02:00:00 -0,7 -1,0 18 10 22 12 WZW 993,4 50 0,0
16.01.2020 01:00:00 -0,4 -0,5 17 9 24 13 W 992,4 50 0,0
16.01.2020 00:00:00 -0,1 -0,2 13 7 17 9 WZW 991,8 8 0,0
15.01.2020 23:00:00 0,2 0,1 15 8 23 12 W 990,6 45 0,0
15.01.2020 22:00:00 0,1 0,0 16 9 21 12 WZW 989,5 21 0,0
15.01.2020 21:00:00 0,1 0,0 10 5 15 8 ZW 988,4 43 0,0
15.01.2020 20:00:00 0,1 0,0 10 6 13 7 ZW 987,5 12 0,1
15.01.2020 19:00:00 0,2 0,1 10 5 13 7 ZW 986,5 5 0,3
15.01.2020 18:00:00 0,1 0,0 8 5 11 6 ZW 985,9 2,9 0,2
15.01.2020 17:00:00 0,2 0,1 8 4 9 5 WZW 985,0 3,3 0,0
15.01.2020 16:00:00 0,3 0,2 5 3 6 3 WZW 984,0 10 0,0
15.01.2020 15:00:00 0,5 0,4 7 4 11 6 ZZW 983,3 1,9 0,2
15.01.2020 14:00:00 1,1 1,0 7 4 13 7 Z 983,2 6 0,3
15.01.2020 13:00:00 1,6 1,5 10 5 15 8 ZZW 983,1 7 0,5
15.01.2020 12:00:00 1,6 1,5 9 5 17 9 Z 983,1 4,4 0,0
15.01.2020 11:00:00 1,4 1,1 14 8 32 18 ZW 983,5 8 0,0
15.01.2020 10:00:00 1,2 1,1 13 7 24 13 ZZW 984,1 12 0,0
15.01.2020 09:00:00 0,7 0,6 16 9 26 14 Z 984,7 17 0,0
15.01.2020 08:00:00 -0,1 -0,2 15 8 27 14 ZZW 985,0 47 0,0
15.01.2020 07:00:00 -0,7 -1,0 11 6 31 17 ZZW 985,5 34 0,0
15.01.2020 06:00:00 0,2 -0,2 24 13 40 21 WZW 985,6 50 0,0
15.01.2020 05:00:00 0,6 0,3 27 15 42 23 ZW 986,0 50 0,0
15.01.2020 04:00:00 0,6 0,3 23 13 36 19 ZW 985,7 50 0,0
15.01.2020 03:00:00 1,4 1,0 22 12 31 17 ZW 985,4 50 0,0
15.01.2020 02:00:00 1,7 1,3 21 11 36 19 ZW 985,9 50 0,0
15.01.2020 01:00:00 1,7 1,3 23 12 34 18 ZZW 985,6 48 0,0
15.01.2020 00:00:00 1,9 1,3 20 11 32 17 ZZW 985,4 50 0,0
14.01.2020 23:00:00 2,2 1,8 23 12 34 18 ZZW 984,9 40 0,0
14.01.2020 22:00:00 2,1 1,7 24 13 40 22 ZZW 985,0 50 0,0
14.01.2020 21:00:00 2,1 1,7 29 16 45 24 ZZW 984,2 35 0,0
14.01.2020 20:00:00 2,2 1,9 28 15 40 22 ZZW 984,3 20 0,0
14.01.2020 19:00:00 2,2 2,1 29 15 53 28 ZZW 985,1 15 0,1
14.01.2020 18:00:00 0,7 0,4 34 19 67 36 Z 985,8 9 1,0
14.01.2020 17:00:00 1,0 0,7 43 23 65 35 Z 986,9 5 1,3
14.01.2020 16:00:00 1,2 0,9 43 23 80 43 Z 987,9 6 0,7
14.01.2020 15:00:00 1,8 1,2 51 28 80 43 Z 989,1 9 0,4
14.01.2020 14:00:00 2,0 1,0 49 26 79 43 Z 990,7 13 0,1
14.01.2020 13:00:00 1,9 0,7 41 22 69 37 Z 992,4 42 0,0
14.01.2020 12:00:00 1,9 0,7 36 20 62 34 Z 993,5 46 0,0
14.01.2020 11:00:00 2,0 0,2 37 20 70 38 ZZW 994,1 50 0,0
14.01.2020 10:00:00 1,1 -0,8 31 17 55 30 ZZW 994,9 50 0,0
14.01.2020 09:00:00 0,0 -3,7 24 13 42 23 ZZW 995,1 50 0,0
14.01.2020 08:00:00 -1,0 -5,2 22 12 36 20 ZW 995,5 50 0,0
14.01.2020 07:00:00 -0,8 -5,0 27 14 38 20 ZZW 995,5 50 0,0
14.01.2020 06:00:00 -0,2 -5,6 22 12 39 21 ZW 995,8 50 0,0
14.01.2020 05:00:00 0,0 -5,0 19 10 31 17 ZZW 996,3 50 0,0
14.01.2020 04:00:00 0,6 -4,8 21 11 34 18 ZZW 996,5 50 0,0
14.01.2020 03:00:00 0,2 -4,1 21 11 28 15 ZZW 996,5 50 0,0
14.01.2020 02:00:00 0,1 -4,2 18 10 31 17 ZZW 996,3 50 0,0
14.01.2020 01:00:00 0,0 -3,7 20 11 26 14 Z 996,3 50 0,0
14.01.2020 00:00:00 -0,8 -4,2 23 12 30 16 ZZW 996,2 50 0,0
13.01.2020 23:00:00 1,3 -4,0 14 8 34 18 ZW 995,9 50 0,0
13.01.2020 22:00:00 1,8 -3,5 28 15 39 21 WZW 995,0 50 0,0
13.01.2020 21:00:00 1,6 -4,5 24 13 40 22 WZW 993,9 50 0,0
13.01.2020 20:00:00 0,8 -5,4 28 15 49 26 ZW 993,4 50 0,0
13.01.2020 19:00:00 1,4 -5,5 35 19 49 27 ZW 993,0 50 0,0
13.01.2020 18:00:00 1,3 -5,4 29 15 45 24 ZW 993,6 50 0,0
13.01.2020 17:00:00 0,8 -6,1 32 17 50 27 ZW 994,0 50 0,0
13.01.2020 16:00:00 0,2 -6,0 31 17 54 29 ZW 994,4 50 0,0
13.01.2020 15:00:00 -0,1 -5,9 29 16 45 25 ZW 994,8 50 0,0
13.01.2020 14:00:00 -0,8 -6,0 30 16 42 23 ZW 995,2 50 0,0
13.01.2020 13:00:00 -1,3 -5,7 22 12 32 17 Z 995,7 50 0,0
13.01.2020 12:00:00 -1,3 -5,7 15 8 40 22 Z 995,3 - 0,0
13.01.2020 11:00:00 -0,6 -5,6 29 16 44 24 ZW 994,9 50 0,0
13.01.2020 10:00:00 -1,3 -5,5 28 15 45 25 WZW 995,2 50 0,0
13.01.2020 09:00:00 -1,7 -5,5 30 16 49 26 WZW 994,6 - 0,0
13.01.2020 08:00:00 -1,4 -5,3 31 17 46 25 WZW 993,8 50 0,0
13.01.2020 07:00:00 -1,5 -5,4 29 16 45 24 WZW 993,6 50 0,0
13.01.2020 06:00:00 -1,8 -5,1 31 17 42 23 WZW 993,6 50 0,0
13.01.2020 05:00:00 -1,6 -5,1 26 14 41 22 WZW 993,8 50 0,0
13.01.2020 04:00:00 -1,4 -5,1 26 14 44 24 ZW 993,9 50 0,0
13.01.2020 03:00:00 -1,6 -4,4 23 12 41 22 ZW 994,0 - 0,0
13.01.2020 02:00:00 -1,9 -4,1 20 11 29 16 ZZW 993,7 50 0,0
13.01.2020 01:00:00 -1,6 -3,6 22 12 32 18 ZZW 993,3 50 0,0
13.01.2020 00:00:00 -1,1 -3,8 19 10 37 20 ZZW 993,3 50 0,0
12.01.2020 23:00:00 -0,7 -3,7 24 13 33 18 ZW 992,8 50 0,0
12.01.2020 22:00:00 -0,3 -3,3 23 13 35 19 WZW 992,3 50 0,0
12.01.2020 21:00:00 -0,1 -3,0 32 17 40 22 W 991,8 50 0,0
12.01.2020 20:00:00 -0,4 -3,8 16 9 29 16 WZW 991,4 50 0,0
12.01.2020 19:00:00 0,2 -3,4 25 13 37 20 WZW 990,7 50 0,0
12.01.2020 18:00:00 0,6 -3,1 28 15 37 20 WZW 990,7 50 0,0
12.01.2020 17:00:00 0,5 -3,2 27 15 34 19 WZW 990,6 47 0,0
12.01.2020 16:00:00 0,5 -3,2 23 12 30 16 WZW 990,3 - 0,0
12.01.2020 15:00:00 1,0 -3,7 19 10 32 17 ZW 990,0 33 0,0
12.01.2020 14:00:00 1,1 -3,6 22 12 32 17 ZW 989,7 34 0,0

tt = temperatuur
td = dauwpunt
ff = windsnelheid
fx = windstoten
dd = windrichting
ppp = luchtdruk
vv = zicht
rr = neerslag

Weerstations in de omgeving